Wind_Speed
12 9 6 8 10 13 14 17 22 20 18 26 28 30 28 28 30 38 45 45 42 39 36 36 35 35 35 31 30 30 29 29 32 32 33 34 35 35 36 37 38 39 39 38 38 38 37 37 37
15 15 11 12 17 19 20 20 20 21 25 25 30 27 23 30 34 36 32 34 35 36 34 34 35 36 35 32 31 30 29 30 29 32 34 34 36 38 40 42 42 40 39 37 36 36 36 36 39
19 19 15 17 21 22 19 21 20 21 20 24 32 34 31 30 33 32 34 33 33 34 35 37 37 37 36 34 33 32 31 31 32 33 35 36 38 39 41 44 44 40 39 39 39 38 37 38 38
23 23 19 17 23 19 18 24 27 21 24 31 32 36 34 35 34 34 34 35 36 35 35 37 34 32 30 29 31 31 32 34 34 34 35 38 40 42 43 42 41 41 39 38 37 39 40 39 39
24 23 20 19 22 23 24 31 19 24 30 31 33 33 37 37 35 37 38 37 39 36 38 32 32 31 31 29 29 30 32 33 33 34 38 40 42 43 42 40 38 40 39 36 37 38 39 40 41
26 26 24 28 30 25 31 28 25 21 25 27 28 31 34 38 38 38 38 36 37 35 29 30 30 30 31 30 29 34 37 37 35 37 39 41 41 40 39 37 39 42 42 42 43 42 43 42 42
30 33 32 32 29 24 36 30 29 29 27 25 28 32 37 36 40 37 37 36 34 24 23 26 27 30 33 34 34 34 35 35 38 40 38 38 37 37 37 39 41 41 42 43 45 43 43 43 43
34 38 37 35 29 23 32 35 28 24 20 20 27 36 37 38 34 35 33 32 26 23 25 32 35 36 35 35 34 32 31 33 37 37 35 35 36 36 38 38 39 39 40 42 41 41 42 44 43
40 43 35 26 29 34 30 35 33 25 27 33 37 40 39 32 28 29 24 15 19 20 24 29 32 32 31 31 33 32 32 33 35 32 32 33 34 33 34 33 34 35 35 35 37 39 41 44 44
46 44 33 28 35 33 22 26 23 27 30 34 39 41 36 25 25 23 20 21 22 24 26 27 29 30 31 30 31 31 31 33 32 30 28 30 29 31 31 33 33 34 34 33 33 33 35 41 45
43 45 35 36 39 31 33 29 21 24 26 31 34 31 32 26 22 20 22 22 26 26 29 30 31 33 31 31 30 31 32 30 32 27 25 30 32 30 32 34 32 29 27 29 33 35 37 40 40
47 46 42 42 44 41 42 41 25 21 27 28 28 26 25 21 16 21 22 24 25 28 31 33 34 32 30 31 29 30 30 30 27 26 30 34 27 31 33 30 26 25 26 27 30 32 35 36 38
52 49 49 48 48 49 45 42 23 23 23 28 22 22 24 19 16 22 23 25 30 30 33 33 33 30 30 29 30 30 29 27 23 28 30 32 31 32 29 28 25 24 25 27 26 26 28 29 34
54 56 60 55 55 52 50 34 27 20 20 21 21 24 20 16 17 21 24 22 30 30 32 33 33 31 29 27 29 30 28 26 28 27 27 28 31 25 25 28 22 21 24 25 21 20 22 26 31
63 61 56 52 49 42 32 27 21 15 18 15 22 27 20 21 24 25 18 20 26 30 31 34 33 30 28 27 27 27 27 27 27 26 28 28 24 23 25 24 18 19 20 19 17 16 19 24 27
59 56 51 40 30 11 27 23 12 14 15 16 21 24 27 27 28 25 17 20 24 30 30 32 32 28 28 27 28 27 26 26 26 27 28 21 22 22 24 20 16 16 14 14 14 13 18 22 23
35 32 25 8 12 12 25 19 13 12 11 17 17 25 34 29 29 31 23 24 26 30 30 31 30 27 27 28 27 27 25 26 27 27 24 22 22 22 25 15 13 14 14 11 13 14 21 22 20
17 18 13 10 9 18 20 17 15 12 17 11 14 27 28 22 25 26 28 24 25 26 28 30 28 26 26 25 27 26 25 27 27 27 25 24 22 23 19 11 12 11 8 10 16 18 22 20 19
20 22 21 16 22 24 20 14 18 16 12 15 22 23 21 20 17 20 23 19 24 25 27 31 28 25 25 23 25 23 24 27 26 24 24 21 20 18 12 7 10 8 7 12 19 18 23 22 23
25 26 19 25 26 24 20 14 12 12 21 18 26 21 21 30 25 21 23 24 23 24 27 28 27 24 23 22 23 21 22 24 22 19 20 17 15 16 4 5 6 3 6 11 18 20 24 21 22
29 28 17 21 25 27 22 20 18 14 18 20 25 24 22 27 27 27 27 24 25 24 26 24 24 23 21 21 19 18 21 21 18 22 19 15 15 11 2 3 4 1 5 7 20 22 24 21 22
36 19 20 21 26 23 24 25 20 20 22 27 29 28 24 23 28 28 27 25 25 24 22 25 21 20 19 19 16 16 19 19 19 20 18 16 15 8 2 5 5 5 8 13 21 24 18 23 25
25 26 24 22 23 26 30 31 22 23 20 25 25 14 14 21 24 25 21 22 21 21 21 21 20 17 17 18 14 14 18 19 21 20 15 13 13 9 3 3 4 6 10 16 20 19 18 22 20
24 32 28 27 29 37 25 34 10 16 19 15 6 9 12 19 28 20 19 17 18 17 21 18 18 16 16 16 13 14 18 15 20 21 12 9 11 8 0 4 7 12 13 18 20 20 20 21 18
38 36 36 36 40 32 23 22 8 9 13 12 12 13 14 18 30 19 17 14 16 18 17 17 16 14 14 12 10 12 17 15 18 16 12 9 5 8 4 8 10 12 16 18 20 21 22 21 21
43 41 40 39 34 26 23 20 9 7 14 17 15 16 18 22 28 16 15 14 16 17 14 15 13 11 13 10 9 11 15 16 16 15 11 11 3 8 7 8 11 12 15 17 19 21 21 23 23
41 39 33 33 26 29 18 18 18 11 11 9 13 15 17 20 23 15 13 13 12 13 11 13 12 12 12 9 7 11 13 15 13 16 8 17 9 4 7 10 13 14 15 17 18 20 21 22 20
33 33 35 38 34 29 24 22 19 14 14 11 10 15 16 21 20 16 15 14 11 9 9 10 10 10 10 4 7 10 10 13 13 13 10 16 15 12 9 11 17 16 17 16 17 18 19 21 22
36 38 41 31 26 27 21 20 12 16 16 14 12 16 20 22 16 15 14 10 9 6 7 8 10 9 9 5 7 9 11 9 11 12 6 11 14 14 11 14 20 17 15 16 15 17 19 19 20
29 31 33 33 31 29 23 17 15 23 19 15 13 14 16 22 13 12 6 6 5 3 5 8 11 8 10 8 8 10 11 12 11 13 11 12 12 14 13 15 16 16 14 14 14 19 18 20 20
Wind_Direction
268 277 322 330 325 319 306 269 263 268 275 264 256 267 278 288 294 301 298 294 294 295 297 296 296 295 293 295 292 290 288 290 294 294 292 290 288 289 290 289 288 286 283 279 274 269 263 259 256
270 277 293 313 330 323 297 260 272 293 282 279 277 284 290 296 292 303 302 297 300 298 296 296 298 298 299 297 294 291 294 296 295 292 289 288 291 294 293 291 288 285 281 277 273 269 265 259 254
270 277 283 313 325 321 298 262 261 290 293 286 288 290 286 307 305 303 306 301 298 301 304 300 298 298 296 297 298 299 297 294 293 291 289 291 292 291 290 291 288 282 279 276 273 269 265 262 256
264 273 284 311 328 310 289 265 276 262 292 295 294 295 299 310 315 315 313 311 307 310 310 306 302 292 290 293 290 290 290 289 290 288 289 293 293 292 291 289 285 282 277 271 266 264 262 258 257
262 266 283 296 318 294 282 280 284 288 291 290 289 294 306 312 315 317 318 319 315 316 313 305 306 301 295 291 287 284 285 288 290 291 294 295 293 291 287 282 280 280 276 268 265 262 259 257 254
269 274 283 303 305 301 288 269 263 280 282 290 287 299 306 314 319 319 322 320 317 316 310 307 307 304 302 299 297 299 298 297 294 295 297 294 293 289 284 281 279 276 273 268 267 264 259 252 248
278 277 282 296 297 299 293 284 258 286 293 289 288 298 300 311 319 316 317 319 315 313 312 314 315 307 297 294 291 289 293 293 296 297 299 295 294 290 285 280 277 274 271 270 266 263 257 249 244
266 272 280 292 284 294 294 293 268 274 282 282 289 294 297 312 318 308 316 311 312 306 305 306 306 299 286 283 280 288 293 290 296 302 301 303 300 293 287 284 279 276 274 270 266 261 255 247 244
266 276 280 280 283 291 285 285 265 280 290 293 291 290 299 310 310 318 320 334 346 330 310 305 300 295 290 286 286 299 298 301 301 302 306 307 298 294 295 288 285 279 274 269 265 261 256 248 242
274 274 275 276 281 287 288 277 274 281 283 276 281 292 302 308 308 312 310 323 332 317 309 301 299 299 296 297 302 304 304 306 307 306 305 309 304 303 300 294 287 277 273 269 263 261 256 251 242
264 266 271 270 281 286 279 296 275 266 265 276 284 294 302 308 318 313 316 324 321 305 305 301 299 308 314 314 314 311 310 309 310 305 305 313 305 304 303 295 287 277 271 265 261 256 252 249 241
256 258 265 270 278 279 287 296 266 271 276 283 286 301 307 310 306 306 318 312 307 303 306 306 310 320 319 314 313 315 312 312 308 307 309 308 315 306 304 297 286 276 270 267 268 259 252 243 233
253 262 265 270 274 277 283 292 269 273 283 284 296 309 319 306 302 298 300 298 304 301 306 314 316 319 317 316 315 317 319 319 310 310 307 306 311 305 305 298 286 276 277 278 269 257 249 235 224
257 261 267 268 273 279 284 285 260 275 277 285 305 304 313 298 295 299 300 294 298 304 311 314 315 319 317 316 318 316 316 316 313 313 316 319 312 305 304 300 285 278 285 274 261 248 238 226 215
272 269 270 272 275 281 283 254 252 274 264 295 290 308 312 301 297 307 304 289 300 306 317 315 315 319 318 316 316 313 319 319 318 317 322 318 311 312 304 298 288 283 282 271 244 239 228 209 202
269 272 273 272 271 264 269 249 257 256 266 290 294 306 313 303 307 316 312 314 317 310 315 313 316 319 317 318 317 316 318 315 317 321 323 321 320 319 312 298 284 285 286 260 227 221 196 189 199
262 271 272 210 234 253 248 255 238 253 292 301 299 299 300 301 321 330 330 329 317 311 310 313 319 318 318 320 320 319 319 319 314 320 325 323 321 318 318 296 287 286 286 237 205 193 182 187 192
280 270 245 190 181 214 218 248 259 275 265 315 298 294 298 326 326 332 328 321 312 313 311 316 317 319 318 321 321 321 322 324 317 327 325 319 324 326 323 298 299 302 269 204 186 184 178 176 174
252 238 233 180 185 204 211 238 269 275 282 302 302 310 319 296 311 343 328 312 310 312 311 312 314 318 316 321 320 323 328 328 323 324 327 326 326 330 320 309 303 311 209 191 185 178 178 172 175
244 240 229 191 199 220 224 238 247 252 278 304 301 303 303 298 321 337 324 311 313 308 309 313 314 314 315 321 320 322 329 332 336 344 340 341 339 336 318 336 317 338 177 195 184 178 177 177 177
238 236 231 199 212 227 240 244 249 260 272 281 294 288 283 287 312 326 327 317 312 305 313 314 313 312 318 323 320 322 333 343 349 345 348 353 348 348 13 9 16 29 166 166 170 181 173 172 172
232 234 227 214 218 236 245 248 246 255 267 272 270 279 309 314 329 320 334 319 306 306 314 313 311 313 321 322 321 326 329 339 346 335 347 357 2 10 43 56 69 104 137 147 156 159 163 170 162
233 231 226 220 229 235 222 248 243 259 262 259 262 314 319 345 338 331 315 306 304 310 312 313 313 317 319 322 318 323 326 332 340 346 348 357 17 16 89 88 102 115 133 153 156 164 160 169 179
219 226 225 223 225 234 223 236 226 220 247 254 273 315 357 347 343 323 306 308 309 314 314 315 319 314 319 320 317 328 325 332 350 350 356 11 13 32 139 109 96 128 133 145 152 157 156 157 152
213 216 220 222 228 234 214 227 178 203 237 274 302 315 345 320 335 316 311 298 316 317 317 322 318 320 331 323 323 336 336 334 338 345 358 359 11 38 113 129 127 119 130 142 150 157 154 154 150
218 216 225 225 229 237 223 226 160 231 241 270 288 328 326 297 329 311 309 294 309 319 320 320 320 331 333 329 337 336 341 338 340 358 6 9 34 57 88 148 139 130 133 138 148 153 167 161 159
214 227 230 232 228 234 224 229 201 220 242 259 312 330 308 323 318 303 308 312 320 318 319 322 327 337 325 323 346 336 343 350 349 359 26 29 41 49 72 145 147 139 131 137 146 153 160 167 167
220 226 211 218 213 224 217 216 197 232 253 277 296 325 322 317 321 308 312 297 315 314 323 337 351 350 343 14 349 347 357 3 8 11 37 40 45 65 80 129 150 145 138 144 149 151 158 164 167
207 208 207 214 224 224 223 215 213 242 259 279 304 325 314 320 312 312 318 301 313 305 334 10 6 0 9 11 7 3 16 16 2 24 35 23 43 67 82 119 147 142 143 150 160 156 158 163 166
220 224 222 221 220 214 222 185 213 232 247 263 284 306 316 326 313 314 306 314 297 297 346 34 18 21 29 19 25 32 36 34 44 54 65 48 71 85 95 117 129 144 150 144 144 147 160 168 173
Height
5905 5905 5904 5904 5906 5902 5899 5896 5891 5891 5890 5886 5883 5886 5889 5890 5889 5887 5880 5873 5872 5871 5867 5863 5859 5856 5853 5851 5847 5845 5841 5839 5841 5839 5836 5833 5831 5829 5828 5827 5826 5825 5824 5823 5824 5825 5827 5828 5829
5901 5901 5901 5900 5899 5897 5894 5895 5888 5887 5885 5883 5879 5882 5883 5885 5884 5881 5874 5869 5866 5863 5861 5857 5853 5849 5847 5845 5842 5838 5835 5833 5831 5830 5828 5826 5823 5820 5818 5817 5817 5815 5813 5813 5814 5816 5817 5819 5820
5897 5897 5898 5896 5895 5892 5892 5888 5885 5882 5879 5877 5873 5873 5877 5879 5876 5872 5867 5864 5861 5859 5856 5852 5849 5844 5840 5836 5833 5831 5829 5827 5823 5821 5819 5817 5814 5811 5808 5806 5805 5806 5805 5804 5804 5804 5806 5808 5811
5892 5893 5895 5894 5891 5890 5886 5881 5881 5880 5878 5871 5868 5865 5868 5871 5865 5862 5860 5857 5853 5851 5849 5844 5840 5837 5834 5831 5828 5825 5822 5819 5816 5813 5810 5807 5804 5801 5798 5796 5794 5794 5795 5794 5794 5794 5796 5798 5801
5887 5888 5889 5891 5890 5887 5881 5878 5877 5873 5870 5868 5864 5862 5862 5859 5859 5856 5853 5849 5846 5844 5841 5835 5832 5829 5826 5823 5821 5818 5815 5811 5808 5804 5801 5797 5794 5791 5789 5787 5786 5785 5783 5784 5784 5785 5786 5788 5790
5884 5884 5885 5886 5886 5882 5876 5875 5873 5869 5865 5862 5861 5860 5858 5855 5854 5853 5850 5845 5841 5839 5833 5829 5824 5820 5818 5814 5811 5808 5805 5801 5798 5795 5792 5788 5785 5782 5780 5777 5776 5774 5774 5773 5773 5774 5775 5777 5780
5879 5877 5880 5881 5880 5880 5870 5870 5869 5863 5863 5860 5857 5856 5854 5854 5851 5848 5845 5840 5837 5835 5830 5825 5820 5816 5812 5809 5808 5804 5799 5795 5790 5786 5784 5779 5775 5772 5770 5767 5765 5764 5762 5761 5762 5762 5764 5765 5768
5873 5870 5876 5876 5874 5876 5869 5863 5864 5860 5859 5858 5854 5852 5850 5850 5848 5845 5841 5836 5831 5830 5827 5820 5817 5813 5808 5805 5803 5798 5793 5789 5784 5779 5775 5769 5765 5762 5760 5757 5754 5751 5750 5749 5748 5750 5752 5754 5757
5863 5864 5870 5870 5868 5868 5867 5860 5857 5856 5855 5851 5849 5847 5848 5848 5844 5839 5835 5830 5826 5824 5820 5817 5813 5808 5803 5799 5795 5790 5785 5780 5776 5772 5766 5761 5757 5754 5751 5747 5744 5741 5739 5738 5738 5738 5741 5743 5747
5857 5856 5864 5865 5863 5861 5861 5857 5854 5853 5852 5848 5845 5843 5842 5842 5839 5834 5830 5825 5823 5820 5818 5814 5808 5802 5796 5790 5786 5782 5778 5773 5767 5762 5759 5755 5749 5745 5742 5738 5735 5733 5730 5729 5729 5730 5731 5733 5737
5852 5846 5857 5856 5855 5855 5852 5855 5851 5848 5846 5843 5841 5840 5837 5836 5832 5829 5824 5822 5821 5816 5812 5806 5801 5794 5787 5783 5779 5775 5772 5766 5759 5756 5752 5747 5743 5738 5734 5730 5727 5724 5722 5721 5721 5721 5723 5724 5727
5837 5842 5844 5846 5847 5846 5846 5845 5847 5841 5840 5838 5836 5835 5833 5831 5827 5824 5822 5820 5817 5812 5806 5800 5794 5788 5783 5779 5775 5770 5765 5759 5754 5750 5745 5739 5735 5731 5727 5722 5719 5716 5714 5713 5712 5711 5712 5714 5718
5831 5836 5836 5837 5837 5837 5838 5837 5838 5836 5837 5832 5832 5830 5828 5826 5823 5821 5819 5816 5811 5806 5800 5795 5790 5785 5780 5775 5770 5764 5759 5753 5749 5745 5740 5734 5728 5724 5719 5715 5711 5709 5707 5705 5702 5702 5703 5706 5711
5829 5826 5824 5827 5828 5828 5828 5829 5829 5832 5832 5828 5826 5825 5824 5821 5818 5817 5815 5812 5806 5801 5796 5791 5785 5780 5776 5771 5765 5759 5754 5749 5744 5738 5733 5727 5722 5717 5713 5709 5705 5702 5699 5696 5696 5697 5698 5700 5705
5813 5810 5812 5816 5818 5819 5822 5819 5824 5828 5826 5824 5821 5820 5818 5816 5814 5813 5811 5807 5801 5796 5791 5785 5781 5776 5771 5767 5761 5755 5749 5743 5738 5733 5728 5722 5717 5713 5708 5703 5700 5697 5694 5692 5692 5693 5693 5697 5703
5802 5800 5799 5807 5810 5815 5814 5813 5821 5821 5819 5820 5818 5816 5812 5810 5807 5807 5805 5801 5795 5791 5786 5781 5776 5771 5767 5762 5756 5750 5745 5739 5733 5727 5722 5717 5712 5707 5702 5698 5696 5692 5690 5688 5689 5690 5692 5698 5703
5792 5791 5795 5801 5804 5808 5808 5811 5814 5814 5812 5813 5812 5811 5810 5807 5801 5800 5797 5794 5791 5786 5781 5777 5772 5767 5762 5757 5751 5745 5740 5734 5729 5723 5717 5713 5708 5702 5697 5693 5691 5688 5686 5685 5688 5689 5693 5698 5703
5792 5792 5793 5796 5800 5800 5803 5803 5805 5806 5807 5808 5808 5807 5806 5800 5799 5796 5793 5791 5787 5781 5777 5774 5769 5763 5758 5753 5747 5741 5736 5730 5724 5718 5713 5708 5703 5697 5692 5689 5687 5685 5683 5684 5686 5689 5694 5699 5703
5786 5787 5788 5792 5793 5793 5796 5796 5799 5800 5800 5802 5803 5801 5799 5798 5798 5794 5791 5787 5782 5777 5774 5770 5765 5759 5755 5750 5744 5738 5732 5727 5721 5715 5710 5705 5699 5693 5689 5687 5685 5683 5681 5683 5685 5690 5695 5700 5705
5780 5781 5785 5788 5789 5788 5791 5792 5792 5795 5796 5796 5797 5797 5795 5794 5793 5790 5788 5783 5778 5774 5770 5766 5761 5756 5751 5746 5740 5735 5730 5725 5718 5713 5707 5702 5696 5691 5688 5686 5684 5683 5681 5683 5686 5691 5696 5701 5707
5775 5777 5784 5787 5787 5784 5786 5786 5788 5790 5790 5791 5794 5792 5791 5790 5789 5785 5783 5778 5774 5770 5766 5762 5758 5753 5748 5743 5737 5732 5728 5722 5716 5712 5707 5700 5695 5690 5687 5686 5684 5684 5683 5683 5685 5692 5698 5703 5709
5767 5777 5778 5780 5780 5781 5782 5781 5781 5785 5786 5788 5789 5789 5788 5789 5783 5781 5776 5773 5770 5766 5763 5759 5754 5750 5745 5740 5734 5730 5726 5721 5716 5711 5705 5698 5693 5689 5688 5686 5686 5686 5685 5686 5689 5696 5700 5704 5711
5769 5769 5771 5774 5776 5776 5778 5775 5780 5782 5784 5784 5784 5785 5785 5782 5778 5773 5770 5769 5767 5763 5759 5755 5751 5747 5742 5737 5732 5728 5724 5720 5714 5708 5703 5698 5694 5690 5688 5688 5688 5688 5688 5690 5694 5699 5703 5707 5712
5764 5760 5764 5767 5767 5762 5773 5773 5777 5776 5777 5778 5781 5784 5780 5777 5773 5769 5767 5765 5763 5760 5756 5752 5748 5744 5740 5734 5729 5726 5722 5718 5714 5708 5702 5698 5694 5691 5689 5689 5689 5690 5692 5694 5698 5702 5706 5710 5715
5748 5752 5753 5754 5753 5757 5767 5770 5773 5771 5773 5774 5778 5779 5774 5773 5771 5767 5765 5763 5760 5757 5754 5750 5746 5741 5737 5732 5728 5725 5721 5718 5714 5708 5703 5698 5694 5692 5690 5691 5692 5693 5696 5698 5700 5703 5708 5714 5719
5738 5743 5745 5745 5751 5757 5761 5763 5767 5768 5769 5770 5773 5773 5771 5769 5769 5765 5763 5760 5757 5754 5752 5748 5744 5739 5735 5730 5727 5724 5721 5717 5713 5709 5703 5699 5695 5694 5692 5693 5694 5697 5698 5701 5704 5706 5711 5718 5723
5732 5733 5746 5747 5750 5752 5757 5759 5760 5762 5765 5768 5769 5770 5769 5766 5765 5762 5759 5757 5755 5753 5751 5746 5742 5737 5732 5729 5727 5724 5721 5717 5713 5709 5705 5700 5697 5696 5694 5694 5696 5699 5701 5704 5706 5710 5714 5719 5724
5725 5732 5735 5735 5739 5745 5751 5753 5756 5758 5761 5764 5766 5766 5766 5765 5761 5759 5756 5755 5753 5751 5749 5745 5740 5736 5732 5729 5727 5724 5721 5717 5714 5710 5707 5703 5700 5698 5696 5696 5698 5702 5703 5707 5710 5713 5716 5720 5724
5714 5717 5724 5733 5737 5740 5747 5750 5754 5755 5757 5761 5762 5764 5765 5761 5758 5756 5754 5752 5751 5750 5748 5744 5740 5735 5732 5729 5727 5724 5722 5718 5715 5711 5708 5706 5704 5700 5699 5699 5701 5704 5706 5708 5711 5714 5717 5721 5725
5710 5717 5722 5726 5731 5734 5740 5744 5749 5751 5754 5758 5760 5762 5761 5758 5756 5754 5753 5751 5750 5749 5747 5743 5739 5736 5733 5730 5728 5725 5723 5720 5717 5714 5710 5708 5707 5705 5704 5703 5705 5706 5708 5711 5713 5715 5719 5722 5726